DW9403 Weather Reports


time (UTC)temp
F
wind
direction
speed
knots
gust
knots
rain 1hr
in
rain 24hr
in
rain mn
in
humidity
%
barometer
mb
20260507114543 49 265 0.0 0.0 0.00 0.00 0.00 82 1019.2
20260507113045 50 288 0.0 0.0 0.00 0.00 0.00 83 1019.2
20260507111538 50 245 0.0 0.0 0.00 0.00 0.00 83 1019.3
20260507110037 50 290 0.0 0.0 0.00 0.00 0.00 84 1019.4
20260507104534 50 292 0.0 0.0 0.00 0.00 0.00 84 1019.4
20260507103034 50 264 0.0 0.0 0.00 0.00 0.00 84 1019.5
20260507101533 50 275 0.0 0.0 0.00 0.00 0.00 84 1019.5
20260507100037 50 269 0.0 0.0 0.00 0.00 0.00 84 1019.6
20260507094530 51 277 0.0 0.0 0.00 0.00 0.00 84 1019.7
20260507093030 51 287 0.0 0.0 0.00 0.00 0.00 83 1019.8
20260507091528 51 265 0.0 0.0 0.00 0.00 0.00 83 1019.8
20260507090026 51 273 0.0 0.0 0.00 0.00 0.00 83 1019.8
20260507084526 51 294 0.0 0.0 0.00 0.00 0.00 83 1020.0
20260507083025 51 292 0.0 0.0 0.00 0.00 0.00 83 1020.0
20260507081531 52 281 0.0 0.0 0.00 0.00 0.00 84 1020.0
20260507080022 52 286 0.0 0.0 0.00 0.00 0.00 84 1020.0
20260507074529 52 232 0.0 0.0 0.00 0.00 0.00 83 1020.0
20260507073020 52 232 0.0 0.0 0.00 0.00 0.00 83 1019.9
20260507071519 52 256 0.0 0.0 0.00 0.00 0.00 82 1019.8
20260507070017 52 255 0.0 0.0 0.00 0.00 0.00 82 1019.9
20260507064516 53 256 0.0 0.0 0.00 0.00 0.00 82 1019.8
20260507063015 53 253 0.0 0.0 0.00 0.00 0.00 82 1019.8
20260507061516 53 295 0.0 0.0 0.00 0.00 0.00 82 1019.8
20260507060013 53 296 0.0 0.0 0.00 0.00 0.00 81 1019.8
20260507054514 54 219 0.0 0.0 0.00 0.00 0.00 82 1019.7
20260507053014 54 290 0.0 0.0 0.00 0.00 0.00 81 1019.7
20260507051512 54 273 0.0 0.0 0.00 0.00 0.00 81 1019.7
20260507050010 54 280 0.0 0.0 0.00 0.00 0.00 80 1019.7
20260507044510 54 304 0.0 0.0 0.00 0.00 0.00 80 1019.8
20260507043010 55 302 0.0 0.0 0.00 0.00 0.00 80 1019.6
20260507041509 56 288 0.0 0.0 0.00 0.00 0.00 80 1019.5
20260507040009 56 292 0.0 0.0 0.00 0.00 0.00 80 1019.3
20260507034510 57 313 0.0 0.0 0.00 0.00 0.00 80 1019.0
20260507033008 57 300 0.0 0.0 0.00 0.00 0.00 79 1018.9
20260507031507 59 285 0.0 0.0 0.00 0.00 0.00 78 1018.6
20260507030007 59 289 0.0 0.0 0.00 0.00 0.00 76 1018.5
20260507024506 61 304 0.0 0.0 0.00 0.00 0.00 75 1018.3
20260507023006 61 306 0.0 0.0 0.00 0.00 0.00 74 1018.3
20260507021506 61 306 0.0 0.0 0.00 0.00 0.00 73 1018.4
20260507020007 62 313 0.0 0.0 0.00 0.00 0.00 72 1018.4
20260507014505 63 290 0.0 0.0 0.00 0.00 0.00 75 1018.5
20260507013010 63 294 0.0 0.0 0.00 0.00 0.00 74 1018.5
20260507011505 64 281 0.0 0.0 0.00 0.00 0.00 73 1018.5
20260507010012 64 355 0.0 0.0 0.00 0.00 0.00 72 1018.5
20260507004502 64 304 0.0 0.0 0.00 0.00 0.00 71 1018.5
20260507003002 65 304 0.0 0.0 0.00 0.00 0.00 69 1018.6
20260507001502 65 314 0.0 0.0 0.00 0.00 0.00 69 1018.5
20260507000001 65 314 0.0 0.0 0.00 0.00 0.00 67 1018.5
20260506234609 65 317 0.0 0.0 0.00 0.00 0.00 68 1018.4
20260506233002 64 229 0.0 0.0 0.00 0.00 0.00 69 1018.6
20260506231600 65 278 0.0 0.0 0.00 0.00 0.00 68 1018.7
20260506230059 64 100 0.0 0.0 0.00 0.00 0.00 70 1018.9
20260506224613 65 301 0.0 0.0 0.00 0.00 0.00 69 1019.0
20260506223102 65 277 0.9 0.0 0.00 0.00 0.00 71 1019.0
20260506221556 64 286 0.0 0.0 0.00 0.00 0.00 72 1019.2
20260506220105 64 202 0.0 0.0 0.00 0.00 0.00 73 1019.2
20260506214550 62 127 0.0 0.0 0.00 0.00 0.00 76 1019.1
20260506213049 62 298 0.0 0.0 0.00 0.00 0.00 77 1019.4
20260506211555 62 277 0.0 0.0 0.00 0.00 0.00 78 1019.6
20260506210045 61 286 0.0 0.0 0.00 0.00 0.00 79 1019.6
20260506204544 61 157 0.0 0.0 0.00 0.00 0.00 79 1019.5
20260506203043 61 148 0.0 0.0 0.00 0.00 0.00 80 1019.5
20260506201541 60 159 0.0 0.0 0.00 0.00 0.00 81 1019.6
20260506200039 60 284 0.0 0.0 0.00 0.00 0.00 82 1019.7
20260506194543 60 285 0.0 0.0 0.00 0.00 0.00 82 1019.9
20260506193036 59 215 0.0 0.0 0.00 0.00 0.00 82 1019.8
20260506191534 58 258 0.0 0.0 0.00 0.00 0.00 84 1019.7
20260506190033 58 167 0.0 0.0 0.00 0.00 0.00 83 1019.7
20260506184532 58 282 0.0 0.0 0.00 0.00 0.00 85 1019.7
20260506183030 57 180 0.0 0.0 0.00 0.00 0.00 85 1019.7
20260506181529 57 220 0.0 0.0 0.00 0.00 0.00 84 1019.6
20260506180027 57 251 0.0 0.0 0.00 0.00 0.00 84 1019.6
20260506174527 57 155 0.0 0.0 0.00 0.00 0.00 86 1019.4
20260506173026 56 211 0.0 0.0 0.00 0.00 0.00 85 1019.4
20260506171526 56 296 0.0 0.0 0.00 0.00 0.00 85 1019.5
20260506170024 56 281 0.0 0.0 0.00 0.00 0.00 87 1019.3
20260506164524 56 220 0.0 0.0 0.00 0.00 0.00 87 1019.3
20260506163024 56 149 0.0 0.0 0.00 0.00 0.00 88 1019.1
20260506161524 55 121 0.0 0.0 0.00 0.00 0.00 89 1019.0
20260506160035 54 105 0.0 0.0 0.00 0.00 0.00 90 1018.6
20260506154524 54 287 0.0 0.0 0.00 0.00 0.00 90 1019.3
20260506153021 54 289 0.0 0.0 0.00 0.00 0.00 90 1019.5
20260506151522 54 292 0.0 0.0 0.00 0.00 0.00 90 1019.4
20260506150019 54 286 0.0 0.0 0.00 0.00 0.00 90 1019.1
20260506144517 54 189 0.0 0.0 0.00 0.00 0.00 90 1018.9
20260506143016 54 169 0.0 0.0 0.00 0.00 0.00 91 1018.5
20260506141516 54 169 0.0 0.0 0.00 0.00 0.00 91 1018.7
20260506140014 53 169 0.0 0.0 0.00 0.00 0.00 91 1018.5
20260506134512 53 169 0.0 0.0 0.00 0.00 0.00 91 1018.4
20260506133011 53 248 0.0 0.0 0.00 0.00 0.00 90 1018.2
20260506131523 53 248 0.0 0.0 0.00 0.00 0.00 90 1018.1
20260506130010 53 248 0.0 0.0 0.00 0.00 0.00 90 1018.0
20260506124506 54 248 0.0 0.0 0.00 0.00 0.00 90 1017.9
20260506123006 54 248 0.0 0.0 0.00 0.00 0.00 89 1017.9
20260506121505 54 248 0.0 0.0 0.00 0.00 0.00 89 1017.9
20260506120007 54 248 0.0 0.0 0.00 0.00 0.00 89 1017.7